THORAD AGENA D DEB

Satellite information

Favourite Embed

Satellite Type and Status

DEBRISIN ORBIT

Key statistics

Satellite THORAD AGENA D DEB at a glance.

Uptime

20280

Days in orbit

Revolutions

≈ 14.2

Per day

Orbit

SSO

Sun Synchronous Orbit

Inclination

100.3

Latest

Satellite identification and parameters

Extended collection of information and parameters for THORAD AGENA D DEB.

Object identification

Identified? True

Debris? True

Object name: THORAD AGENA D DEB

International designator: 1970-025PS

Object number (NORAD): 19150

Object ID (CCSDS): 19150

Country: UNITED STATES OF AMERICA (US)

Current information (Y/N): Y

RCS size: SMALL

Orbital parameters

Period: 101.442 minutes

Inclination: 100.342 deg

SMA: 7205.093 km

Apoapsis: 844.387 km

Periapsis: 809.53 km

RAAN: 191.0174 deg

Eccentricy: 0.00241895

Argument of periapsis: 81.9669 deg

Mean anomaly: 278.4245 deg

Mean motion: 14.19525943 rev/day

Mean motion (dot): 0.00012077 rev/day2

B* drag term: 0.0057295487 1/REarth

Two-line elements (TLE)

Creation date: Oct. 16, 2025, 2:37 a.m.

Reference frame: TEME

Reference center: EARTH

Epoch: Oct. 15, 2025, 11:12 p.m. UTC

TLE line 0: 0 THORAD AGENA D DEB

TLE line 1: 1 19150U 70025PS 25288.96694295 .00012077 00000-0 57295-2 0 9992

TLE line 2: 2 19150 100.3420 191.0174 0024190 81.9669 278.4245 14.19525943870679

Live tracking on map

Real-time ground track for satellite THORAD AGENA D DEB.

In-orbit conjunctions

A list of the most updated potential collisions computed for object THORAD AGENA D DEB.

Target Orbit TCA Probability of collision Miss distance Type
SL-3 DEB LEO 2025-10-10 22:29:23 0.0001153358 84.0 (m) DEBRIS
COSMOS 2369 LEO 2025-03-31 10:38:17 0.0001332832 511.0 (m) PAYLOAD
FENGYUN 1C DEB SSO 2024-09-25 03:52:35 0.003783226 31.0 (m) DEBRIS

Associated space launch

Meteorological research and development satellite

THORAD AGENA D DEB was lifted into orbit during the mission ‘Thorad SLV-2G Agena D | Nimbus 4’, on board a Thorad SLV-2G Agena D space rocket.

The launch took place on April 8, 1970, 8:17 a.m. from Space Launch Complex 2E.

For more information about the launch, click the button.

Launch to space Thorad SLV-2G Agena D | Nimbus 4
Thorad SLV-2G Agena D | Nimbus 4

Agency: N/A

Status: Launch Successful

Launch date: April 8, 1970, 8:17 a.m. UTC

Rocket: Thorad SLV-2G Agena D

Launch pad: Space Launch Complex 2E

Location: Vandenberg SFB, CA, USA

...

Latest news about this satellite

There are no fresh news available about this satellite. Check back as we update our databases every day.


Newsletter sign-up

Weekly statistics, charts and insights to help you stay on top of the space industry.